This demonstration page uses our WeatherBlox Daily Observations layout. Learn more.

Left ArrowRight Arrow

Hourly Observations for December 18, 2019

Temp ( °F °C ) Dew Point ( °F °C ) Humidity (%) Winds ( mph kmh ) Pressure ( in mb ) Visibility ( mi km ) Precip ( " mm )
12:52 am 00:52 Clear 20 -6.7 17 -8.3 89 89 NNE 5 7 30.29 1026 10 16 0.00 0.00
1:52 am 01:52 Clear 20 -6.7 17 -8.3 89 89 NNE 6 9 30.31 1026 10 16 0.00 0.00
2:52 am 02:52 Clear 19 -7.2 16 -8.9 88 88 N 3 6 30.32 1027 10 16 0.00 0.00
3:52 am 03:52 Clear 19 -7.2 16 -8.9 88 88 Calm 30.31 1026 10 16 0.00 0.00
4:52 am 04:52 Clear 16 -8.9 13 -10.6 88 88 ESE 3 6 30.31 1026 10 16 0.00 0.00
5:52 am 05:52 Mostly Clear 16 -8.9 13 -10.6 88 88 SE 6 9 30.30 1026 10 16 0.00 0.00
6:52 am 06:52 Mostly Clear 17 -8.3 14 -10 88 88 SE 7 11 30.32 1027 9 14 0.00 0.00
7:52 am 07:52 Mostly Sunny 16 -8.9 13 -10.6 88 88 SE 5 7 30.32 1027 10 16 0.00 0.00
8:52 am 08:52 Mostly Sunny 20 -6.7 17 -8.3 89 89 SSE 10 17 30.32 1027 10 16 0.00 0.00
9:52 am 09:52 Mostly Sunny 24 -4.4 19 -7.2 81 81 S 15 24 30.32 1027 10 16 0.00 0.00
10:52 am 10:52 Mostly Sunny 27 -2.8 21 -6.1 78 78 SSE 17 28 30.30 1026 10 16 0.00 0.00
11:52 am 11:52 Mostly Sunny 31 -0.6 22 -5.6 69 69 S 17 28 30.25 1024 10 16 0.00 0.00
12:52 pm 12:52 Partly Cloudy 33 0.6 23 -5 66 66 SSE 16 26 30.22 1024 10 16 0.00 0.00
1:52 pm 13:52 Partly Cloudy 35 1.7 25 -3.9 67 67 SSE 15 24 30.19 1022 10 16 0.00 0.00
2:52 pm 14:52 Partly Cloudy 36 2.2 25 -3.9 64 64 SSE 17 28 30.17 1022 10 16 0.00 0.00
3:52 pm 15:52 Mostly Sunny 36 2.2 26 -3.3 67 67 SSE 16 26 30.16 1021 10 16 0.00 0.00
4:52 pm 16:52 Partly Cloudy 34 1.1 26 -3.3 73 73 S 16 26 30.15 1021 10 16 0.00 0.00
5:52 pm 17:52 Partly Cloudy 32 0 26 -3.3 79 79 SSE 13 20 30.16 1021 10 16 0.00 0.00
6:52 pm 18:52 Mostly Clear 30 -1.1 25 -3.9 82 82 SSE 10 17 30.16 1022 10 16 0.00 0.00
7:52 pm 19:52 Clear 28 -2.2 24 -4.4 85 85 SSE 10 17 30.17 1022 10 16 0.00 0.00
8:52 pm 20:52 Mostly Clear 27 -2.8 24 -4.4 89 89 SSE 12 19 30.16 1021 10 16 0.00 0.00
9:52 pm 21:52 Partly Cloudy 27 -2.8 24 -4.4 89 89 SSE 10 17 30.15 1021 10 16 0.00 0.00
10:52 pm 22:52 Partly Cloudy 25 -3.9 22 -5.6 88 88 SSE 9 15 30.14 1021 10 16 0.00 0.00
11:52 pm 23:52 Mostly Clear 27 -2.8 23 -5 85 85 SSE 9 15 30.13 1020 10 16 0.00 0.00

Powered by AerisWeather